Tracking 18987 objects as of 25-Feb-2018
HD Live streaming from Space Station
objects crossing your sky now

METEOR 2-13 DEB

Track METEOR 2-13 DEB now!
10-day predictions


NORAD ID: 43151
Int'l Code: 2018-004AL
Perigee: 941.1 km
Apogee: 960.8 km
Inclination: 82.5 °
Period: 103.9 minutes
Semi major axis: 7321 km
RCS: Unknown
Launch date: January 12, 2018
Source: Commonwealth of Independent States (former USSR) (CIS)
Launch site: SRIHARIKOTA (SRI)

Note: This is SATELLITE DEBRIS
aabbcc
Your satellite tracking list
Your tracking list is empty




NASA's NSSDC Master Catalog

Two Line Element Set (TLE):
1 43151U 85119C   18055.57177002 +.00000283 +00000-0 +23443-3 0  9998
2 43151 082.5385 152.8896 0013442 034.1352 326.0671 13.85681632005955
Source of the keplerian elements: AFSPC